Location: Emblem
(62.4273°N, 6.4710°E)
Time: 05:46:10
(UTC+02:00)

Transit 2A - Pass Details

Date: 06 March 2024
Orbit: 596 x 956 km, 66.7° (Epoch: 24 April)

Event Time Altitude Azimuth Distance (km) Brightness Sun altitude
Rises 23:34:56 0° 295° (WNW) 2,907 9.6 -31.3°
Reaches altitude 10° 23:37:09 10° 299° (WNW) 2,031 8.7 -31.4°
Enters shadow 23:39:35 31° 309° (NW) 1,142 7.3 -31.5°
